Hourly Data Report for February 15, 2003

TORONTO CITY
ONTARIO

43°40'00.000" N
79°24'00.000" W
112.50 m
6158355
71508
XTO

Download Data

Hourly Data (February 2003)
Hourly Data Report for February 15, 2003
TIME
LST
Temp Definition
°C
Dew Point Definition
°C
Rel Hum Definition
%
Precip. Amount Definition
mm

Wind Dir Definition
10's deg

Wind Spd Definition
km/h
Visibility Definition
km
Stn Press Definition
kPa
Hmdx Definition


Wind Chill Definition


Weather Definition


00:00 -12.6 -18.8 60     0 LegendMM 101.02     LegendNANA
01:00
02:00 -12.8 -20.7 52     0 LegendMM 101.23     LegendNANA
03:00 -13.7 -21.3 53     0 LegendMM 101.32     LegendNANA
04:00 -14.4 -22.4 51     0 LegendMM 101.33     LegendNANA
05:00 -14.6 -23.3 48     0 LegendMM 101.38     LegendNANA
06:00 -14.8 -24.7 43     0 LegendMM 101.50     LegendNANA
07:00 -15.1 -24.5 45     0 LegendMM 101.57     LegendNANA
08:00 -15.4 -25.0 44     0 LegendMM 101.71     LegendNANA
09:00 -14.6 -25.3 40     0 LegendMM 101.83     LegendNANA
10:00 -13.5 -25.2 37     0 LegendMM 101.91     LegendNANA
11:00 -12.5 -24.3 37     0 LegendMM 102.00     LegendNANA
12:00 -12.1 -24.2 36     0 LegendMM 102.05     LegendNANA
13:00 -11.3 -24.2 34     0 LegendMM 102.03     LegendNANA
14:00 -10.8 -23.7 34     0 LegendMM 101.99     LegendNANA
15:00 -12.0 -23.8 37     0 LegendMM 102.02     LegendNANA
16:00 -12.3 -25.4 33     0 LegendMM 102.17     LegendNANA
17:00 -12.6 -24.1 38     0 LegendMM 102.11     LegendNANA
18:00 -13.9 -24.7 40     0 LegendMM 102.27     LegendNANA
19:00 -14.3 -25.0 40     0 LegendMM 102.39     LegendNANA
20:00 -14.4 -24.9 41     0 LegendMM 102.41     LegendNANA
21:00 -14.3 -25.0 40     0 LegendMM 102.40     LegendNANA
22:00 -15.0 -24.9 43     0 LegendMM 102.44     LegendNANA
23:00 -15.4 -24.3 46     0 LegendMM 102.48     LegendNANA

Notes on Data Quality.

Legend

  • E = Estimated
  • M = Missing
  • NA = Not Available*
  • [empty] = Indicates an unobserved value
Date modified: